Location: Fultenbach
(48.4918°N, 10.5731°E)
Time: 21:27:19
(UTC+00:00)

Daily predictions for brighter satellites

Satellite Brightness Start Highest point End
(mag) Time Altitude Azimuth Time Altitude Azimuth Time Altitude Azimuth
Cosmos 405 Rocket 3.4 15:54:01 10° NNW 15:57:10 48° W 16:00:15 10° S
Cosmos 1461 2.7 15:53:45 10° SSW 15:57:37 75° SE 16:01:34 10° NE
Cosmos 1844 Rocket 4.4 15:58:06 10° N 16:00:39 13° NNE 16:03:11 10° ENE
Cosmos 2219 4.1 15:56:35 10° NNW 16:01:26 27° NE 16:06:15 10° ESE
Cosmos 1980 Rocket 3.5 15:58:35 10° SSE 16:02:46 22° E 16:06:57 10° NE
CORIOLIS 4.3 15:57:50 10° SE 16:02:56 49° ENE 16:08:06 10° N
ATLAS CENTAUR R/B 3.8 16:01:02 10° WNW 16:03:32 21° WSW 16:05:59 10° S
Cosmos 1634 Rocket 4.4 15:58:53 10° SSW 16:05:01 67° WNW 16:11:11 10° N
NOSS 3-2 (A) 3.8 16:01:06 10° WSW 16:06:08 54° NW 16:12:16 10° NE
USA 307 -1.3 16:07:30 10° WSW 16:08:41 71° NNW 16:08:49 49° NE
NOSS 3-2 (C) 3.2 16:04:18 10° SW 16:09:19 80° SE 16:15:24 10° NE
Cosmos 2263 Rocket 2.6 16:04:50 10° NNW 16:10:09 39° NE 16:15:28 10° ESE
Cosmos 1867 3.6 16:06:29 10° NW 16:11:59 89° SW 16:17:25 10° SE
ARIANE 5 R/B 2.8 16:08:15 10° SE 16:13:02 43° ENE 16:17:53 10° N
IRIDIUM 106 4.4 16:08:28 10° N 16:13:39 60° E 16:18:48 10° SSE
Cosmos 2279 Rocket 4.2 16:07:29 10° SSW 16:13:42 81° W 16:19:59 10° N
IRS-1C 4.4 16:08:48 10° SE 16:13:49 44° ENE 16:18:51 10° N
Cosmos 1825 Rocket 3.8 16:13:49 10° N 16:18:00 45° ENE 16:22:08 10° SSE
Cosmos 1758 Rocket 4.5 16:18:07 10° NNW 16:22:17 51° W 16:26:26 10° S
Meteor 1-25 Rocket 4.3 16:16:51 10° N 16:22:40 68° ENE 16:28:23 10° SSE
COSMO-SKYMED 1 4.5 16:22:48 10° E 16:22:48 10° E 16:23:30 10° E
Cosmos 2098 Rocket 3.5 16:19:00 10° SSW 16:23:21 73° W 16:28:30 10° N
Lacrosse 4 Rocket 3.8 16:22:49 10° NW 16:24:23 12° NNW 16:25:57 10° N
Cosmos 1076 Rocket 4.1 16:21:09 10° N 16:25:08 35° ENE 16:29:07 10° SE
SAR-Lupe-4 3.9 16:22:18 10° SE 16:25:39 40° ENE 16:29:01 10° N
Cosmos 1655 Rocket 4.2 16:19:42 10° N 16:25:41 46° ENE 16:31:37 10° SSE
USA 290 4.5 16:23:10 10° NW 16:26:04 30° WSW 16:28:57 10° SSW
Cosmos 1782 3.7 16:22:57 10° SSW 16:26:24 45° WNW 16:29:52 10° N
Cosmos 1933 3.3 16:22:53 10° S 16:26:38 55° E 16:30:23 10° NNE
Meteor 1-28 Rocket 3.0 16:26:44 10° N 16:30:05 79° WNW 16:33:24 10° SSW
Cosmos 2227 Rocket 2.2 16:24:43 10° NNW 16:30:25 84° ENE 16:36:04 10° SSE
CBERS-1 4.5 16:26:56 10° S 16:32:00 66° WSW 16:37:07 10° NNW
Cosmos 2369 Rocket 4.5 16:31:22 10° NW 16:33:32 12° NNW 16:35:42 10° N
SPOT 1/Viking Rocket 4.1 16:32:12 10° SE 16:36:53 36° ENE 16:41:36 10° N
SAR-Lupe-1 4.2 16:34:47 10° SSE 16:38:16 50° ENE 16:41:47 10° N
SJ-12 3.7 16:34:47 10° SSE 16:38:29 56° ENE 16:42:12 10° N
Cosmos 1697 Rocket 2.7 16:36:11 10° SSW 16:41:47 86° ESE 16:47:27 10° NNE
CENTAUR R/B 3.9 16:36:43 10° W 16:42:16 30° NNW 16:48:30 12° NE
CZ-2D R/B 2.6 16:40:45 10° SSE 16:43:51 63° ENE 16:46:59 10° N
NOSS 2-3 (C) 3.3 16:42:30 10° SSW 16:45:51 50° SE 16:47:48 23° ENE
Cosmos 2058 Rocket 3.9 16:42:23 10° SSE 16:46:19 31° E 16:49:15 16° NE
Cosmos 1538 Rocket 4.0 16:41:09 10° NNW 16:46:24 61° ENE 16:51:40 10° SE
NOSS 3 (A) 4.1 16:45:11 10° NW 16:47:33 70° NE 16:50:39 10° SE
Cosmos 2266 Rocket 4.3 16:43:18 10° NNW 16:49:25 71° W 16:55:24 10° S
Cosmos 1606 Rocket 3.6 16:48:10 10° S 16:52:35 87° W 16:57:04 10° N
Lacrosse 5 rocket 2.6 16:54:59 10° NW 16:57:54 21° N 16:58:51 19° NNE
EXPRESS MD2 3.8 16:55:53 10° SSW 16:58:11 29° SE 16:59:01 25° ESE
UNK 3.9 16:54:23 10° N 16:58:57 73° WNW 17:03:29 10° SSW
Thor Agena Rocket 4.4 16:55:18 10° S 17:00:21 52° W 17:05:23 10° NNW
CZ-4C R/B 4.0 16:53:37 10° NW 17:00:29 50° WSW 17:08:48 10° SSE
IRS-P3 4.0 16:57:37 10° SSE 17:02:55 79° ENE 17:08:16 10° NNW
NOSS 2-3 (D) 3.1 17:01:31 10° SW 17:05:11 87° NW 17:07:03 29° NE
NOSS 2-3 (E) 3.1 17:02:13 10° SW 17:05:51 80° NW 17:07:43 28° NE
Cosmos 1354 Rocket 4.5 17:01:08 10° SW 17:06:20 61° WNW 17:11:33 10° NNE
Resurs 1-3 4.0 17:03:05 10° SE 17:07:04 38° ENE 17:11:04 10° N
CZ-4 R/B 4.3 17:03:48 10° SSE 17:07:40 59° ENE 17:11:34 10° N
Cosmos-2242 3.2 17:05:21 10° SSE 17:09:24 47° E 17:11:23 26° NE
MOS 1 Rocket 3.5 17:04:57 10° SSE 17:09:55 84° WSW 17:15:13 10° NNW
USA 238 DEB 3.5 17:04:27 10° SSW 17:10:30 70° SE 17:14:48 23° NE
USA 238 3.5 17:04:33 10° SSW 17:10:37 70° SE 17:14:54 23° NE
Meteor 2-20 4.4 17:04:56 10° S 17:11:04 76° E 17:17:13 10° NNE
Spot 4 Rocket 4.1 17:08:46 10° SE 17:13:42 52° ENE 17:18:40 10° N
Cosmos 1898 Rocket 3.6 17:08:58 10° S 17:13:57 52° ESE 17:16:32 27° NE
Cosmos 1726 Rocket 3.9 17:10:32 10° SSW 17:15:09 71° WNW 17:19:43 10° N
Gbstr 26 Del rocket 2.6 17:11:20 10° WSW 17:15:22 75° NNW 17:16:29 44° ENE
Cosmos 1553 Rocket 4.2 17:09:46 10° SSE 17:15:35 46° E 17:21:33 10° NNE
USA 215 3.9 17:12:07 24° NE 17:15:40 42° N 17:21:46 10° WNW
Cosmos 372 Rocket 3.9 17:11:30 10° S 17:16:36 67° ESE 17:19:40 24° NNE
AQUARIUS 4.5 17:13:11 10° S 17:17:34 67° WSW 17:21:58 10° NNW
Cosmos 2082 3.6 17:13:16 10° NNW 17:18:59 67° ENE 17:24:41 10° SE
IRAS Rocket 4.3 17:14:43 10° SE 17:19:59 50° ENE 17:25:16 10° N
Cosmos 1805 2.7 17:17:44 10° N 17:21:06 65° E 17:24:25 10° SSE
GEOS 3 Rocket 3.8 17:19:09 23° NE 17:22:38 76° NW 17:27:59 10° SW
YAOGAN 1 2.4 17:21:32 10° SSE 17:25:43 60° ENE 17:29:56 10° N
Cosmos 923 Rocket 3.9 17:22:46 10° NNW 17:27:56 60° ENE 17:32:38 12° SE
Cosmos 1937 Rocket 3.6 17:24:30 10° S 17:29:30 52° ESE 17:30:51 41° ENE
SL-16 R/B 3.6 17:26:44 10° SSE 17:29:26 21° SE 17:29:26 21° SE
Cosmos 1745 Rocket 4.3 17:25:34 10° N 17:31:22 40° ENE 17:37:04 10° SE
Meteor 2-20 Rocket 4.3 17:26:12 10° S 17:32:23 78° E 17:38:22 10° NNE
CZ-2D R/B 3.3 17:29:38 10° SSE 17:33:49 85° ENE 17:37:58 10° NNW
SL-16 R/B 4.2 17:29:15 10° N 17:34:33 31° WNW 17:39:50 10° WSW
SL-24 R/B - RUBIN 2 4.4 17:29:39 10° S 17:34:40 39° ESE 17:34:52 39° ESE
SKYMED 2 3.4 17:35:14 31° NNE 17:37:16 87° ESE 17:41:37 10° SSW
Cosmos 1244 Rocket 4.4 17:31:07 10° N 17:37:26 85° E 17:43:38 10° S
COSMOS 2455 3.3 17:32:43 10° S 17:38:14 39° ESE 17:38:36 38° ESE
Meteor 2-2 Rocket 4.1 17:32:40 10° S 17:38:18 79° E 17:42:46 17° NNE
Okean 1 3.0 17:35:08 10° S 17:38:21 69° S 17:38:21 69° S
BREEZE-M DEB (TANK) 4.5 17:13:05 10° W 17:40:55 87° SSW 17:44:17 34° ESE
Cosmos 494 Rocket 4.5 17:38:39 10° NNW 17:42:50 41° NNE 17:42:50 41° NNE
Cosmos 1844 Rocket 3.0 17:40:37 10° NNW 17:45:49 45° NE 17:45:49 45° NE
Cosmos 2219 3.5 17:40:21 10° NNW 17:46:04 68° WSW 17:51:45 10° SSE
Cosmos 1980 Rocket 2.4 17:40:35 10° SW 17:46:13 68° WNW 17:49:21 27° NNE
Aureole 1 Rocket 3.8 17:43:25 10° SW 17:48:03 63° WNW 17:51:47 22° NNE
SL-08 R/B 4.4 17:42:15 10° N 17:48:38 86° E 17:54:59 10° S
Meteor 1-26 Rocket 4.1 17:43:32 10° SSW 17:48:56 84° WNW 17:52:49 20° N
PSLV R/B 3.3 17:45:54 10° SSE 17:49:59 87° NNW 17:54:01 10° NNW
ARIANE 5 R/B 4.5 17:47:48 10° SSW 17:52:12 29° W 17:56:40 10° NW
Cosmos 1386 Rocket 4.3 17:46:23 10° N 17:52:29 70° E 17:58:40 10° SSE
SL-19 R/B 4.2 17:47:20 10° SSE 17:52:46 90° WSW 17:58:33 10° NNW
Cosmos 2263 Rocket 3.5 17:48:48 10° NW 17:54:05 41° WSW 17:59:22 10° S
BREEZE-M DEB (TANK) 4.1 17:55:18 10° SW 17:57:13 27° SW 17:57:13 27° SW
COSMO-SKYMED 1 2.6 17:59:08 66° SSW 17:59:08 66° SSW 18:02:42 10° SSW
Cosmos 1680 Rocket 3.3 17:54:22 10° NNW 17:59:37 80° ENE 18:00:25 64° SE
BREEZE-M DEB (TANK) 4.4 17:56:45 10° WNW 18:00:52 74° SSW 18:06:53 29° ESE
NOAA 6 3.9 17:57:02 10° SSE 18:02:09 89° W 18:07:17 10° NNW
Cosmos 2369 3.7 17:58:05 10° SSW 18:03:49 84° WNW 18:05:20 52° NNE
Cosmos 967 Rocket 4.4 17:58:05 10° SSW 18:04:25 78° ESE 18:05:43 58° NE
Cosmos 44 Rocket 3.9 18:08:01 10° NW 18:11:53 49° NNW 18:11:53 49° NNW
Cosmos 2333 Rocket 4.0 18:27:56 10° S 18:29:34 19° S 18:29:34 19° S
CENTAUR R/B 4.2 18:29:19 10° NW 18:35:18 27° N 18:35:36 27° NNE
Lacrosse 5 rocket 4.1 18:32:16 10° NW 18:32:26 11° NW 18:32:26 11° NW
USA 215 3.8 18:59:28 48° NNW 18:59:28 48° NNW 19:04:29 10° NW
SL-16 R/B 4.0 19:09:12 10° SW 19:11:20 23° SW 19:11:20 23° SW
COSMOS 2455 4.3 19:18:16 10° WSW 19:21:46 33° W 19:21:46 33° W
